Terug naar catalogus

STARLINK-6234

ActiefCommunicatieVLEO
NORAD 57331·PAYLOAD·🇺🇸 United States

Gelanceerd Jul 16, 2023 vanaf Cape Canaveral Space Force Station

Loading…

Volgende Passages (komende 24 uur)

TLE

VersSource: CelesTrak SupGP

Epoch: Sep 15, 2026, 02:05 UTC

1 57331C 23099D   26258.08729167 -.00008669  00000+0 -31401-3 0  2585
2 57331  43.0009 262.6810 0001742 265.2070  95.3067 15.27580098    14

Volg STARLINK-6234 in realtime met AllMySat

Download on the App Store